Wind_Speed
2 4 5 11 5 3 4 4 7 3 7 5 12 7 7 14 12 20 24 29 30 32 27 26 28 24 25 27 24 22 25 23 23 19 19 24 22 20 15 15 14 12 14 11
6 5 10 4 6 4 5 3 5 1 7 2 4 11 5 11 13 21 26 26 34 30 30 31 29 26 28 24 23 21 22 24 22 24 23 19 19 19 12 12 11 8 8 10
5 6 4 4 4 3 2 7 4 4 6 2 3 4 5 3 6 17 22 30 33 35 32 34 31 28 28 28 26 26 22 26 25 28 23 17 19 19 18 15 14 10 7 10
5 4 7 5 6 7 5 9 12 6 5 3 8 4 4 5 11 10 22 27 31 34 33 37 32 31 31 30 27 25 22 24 27 27 29 20 21 19 19 15 13 11 9 10
7 3 4 5 8 9 9 14 12 1 5 2 3 2 3 4 2 7 18 22 29 37 31 36 37 33 30 32 29 25 24 23 27 32 30 22 23 19 18 17 15 12 11 14
7 4 5 6 2 4 7 5 8 6 4 2 5 6 4 3 4 4 16 26 30 32 32 32 34 33 30 34 30 27 26 26 29 32 31 27 25 24 20 17 15 14 11 13
6 3 2 3 3 5 7 7 2 2 3 5 3 2 1 2 2 3 9 26 30 31 30 29 34 36 31 34 32 30 27 27 30 31 29 32 27 28 20 19 17 16 15 15
2 7 4 2 7 7 5 8 6 5 4 5 1 2 4 3 1 5 10 11 25 28 30 31 32 34 33 34 34 31 29 28 30 32 30 31 30 27 22 20 20 20 20 15
4 5 3 2 4 6 4 2 3 7 4 2 2 2 1 4 3 7 9 9 9 19 25 30 31 33 34 34 35 32 32 29 27 31 32 32 33 28 26 21 20 21 21 20
5 1 2 4 4 6 3 5 2 4 3 2 4 4 4 5 1 3 5 5 4 12 19 28 34 34 35 35 33 31 32 32 26 29 35 35 36 32 29 24 23 21 19 16
6 3 2 3 3 3 3 2 7 6 3 5 2 6 5 6 5 2 4 8 6 5 17 23 30 35 39 31 32 33 31 35 30 28 33 36 37 33 33 30 26 24 23 21
2 5 2 2 1 1 2 3 5 5 4 1 3 5 2 5 3 6 7 4 2 6 5 19 26 30 32 32 32 36 36 37 33 28 31 37 38 35 33 32 30 26 25 22
6 2 3 7 6 4 2 4 5 6 3 4 5 5 3 6 1 4 2 4 10 13 4 3 17 25 26 26 28 30 33 36 36 33 31 36 38 38 37 32 32 30 29 27
8 4 6 7 6 3 3 4 4 5 4 5 5 3 6 8 7 6 1 5 4 7 15 11 10 13 16 19 23 26 29 33 39 38 35 33 34 35 37 36 32 32 32 30
5 3 3 4 5 3 4 6 8 4 6 6 6 8 5 8 9 17 5 2 4 5 18 15 1 5 5 3 14 18 27 34 39 40 37 35 32 29 31 34 34 33 33 33
3 2 5 2 5 7 3 7 7 4 4 3 2 4 3 8 15 12 12 9 10 8 13 10 7 9 5 5 6 11 18 26 21 17 31 34 33 29 27 30 30 31 29 32
4 6 3 3 3 4 3 4 4 4 4 6 5 7 9 4 9 6 6 10 12 7 8 11 13 21 12 9 10 15 20 25 28 24 18 23 26 29 31 29 30 30 29 28
6 5 2 3 2 2 6 4 4 6 4 4 2 2 6 8 5 8 6 5 12 10 13 14 15 16 15 12 7 1 7 15 20 27 24 18 15 13 16 26 30 32 33 31
5 5 3 4 4 4 3 4 6 5 5 5 5 6 11 15 9 6 7 5 8 12 14 14 13 12 10 7 6 3 2 7 11 16 20 22 11 11 16 21 23 27 33 33
6 6 5 3 5 6 7 4 6 6 3 11 9 9 11 12 3 2 8 8 11 11 9 8 8 8 9 10 10 9 7 5 5 6 7 17 23 23 23 21 24 27 37 33
3 4 6 3 2 5 6 6 4 5 7 18 18 18 16 5 4 15 14 10 7 7 6 4 3 6 8 9 7 10 11 9 8 8 8 9 12 17 17 17 16 15 20 26
6 6 3 3 3 3 10 6 7 7 7 19 19 20 16 7 7 17 13 10 7 6 5 5 4 3 1 1 3 3 4 4 3 7 7 7 6 5 10 12 12 13 15 17
2 5 6 6 6 4 4 6 10 18 21 18 16 14 9 11 13 19 16 11 6 3 4 6 7 3 0 1 2 3 2 2 2 3 4 3 2 3 3 3 3 5 10 16
2 3 3 4 0 4 10 11 16 18 14 16 15 12 14 18 16 17 14 13 9 4 3 7 8 1 2 2 2 3 2 2 5 4 4 4 3 3 3 1 5 3 4 3
4 5 5 1 0 8 8 14 18 19 17 16 14 12 14 16 15 14 15 12 8 3 3 6 6 1 4 5 5 5 4 2 5 5 4 5 4 3 3 6 3 4 3 3
5 6 4 5 12 7 16 14 19 23 23 21 18 18 15 15 14 18 19 14 8 3 1 2 2 2 3 4 5 5 4 4 4 6 5 4 3 4 4 5 5 4 3 4
Wind_Direction
18 80 205 212 167 160 133 168 205 245 179 154 199 219 211 192 180 170 180 185 187 191 194 199 196 203 196 195 191 205 206 204 198 195 193 186 188 190 185 189 208 203 212 224
27 231 236 127 179 221 203 190 216 83 156 151 190 227 198 185 203 181 176 184 192 190 192 198 199 201 201 199 200 188 188 182 200 205 180 194 207 195 176 178 192 191 196 213
165 234 141 183 271 244 255 199 190 195 158 203 341 282 178 234 203 196 190 188 192 196 193 196 201 203 205 202 200 193 188 194 189 186 191 192 186 185 199 201 207 206 226 232
225 257 197 180 243 150 253 181 183 207 102 239 169 275 271 179 204 195 204 198 198 198 197 198 201 202 209 209 202 202 200 195 196 193 196 196 196 200 204 209 202 219 232 214
255 246 174 187 223 168 222 170 184 200 100 62 320 60 257 104 249 228 216 218 203 196 197 200 203 209 208 212 207 208 204 195 192 192 197 199 204 210 215 214 210 225 239 226
237 231 171 205 146 184 128 78 39 42 78 3 231 159 323 6 307 289 221 217 212 207 207 206 205 210 215 213 211 212 210 204 193 197 206 208 210 210 216 218 217 225 222 216
332 251 254 177 133 22 77 74 6 17 19 220 147 74 215 317 323 325 284 208 213 215 208 204 206 208 214 215 214 214 214 211 204 206 211 213 215 210 221 222 220 223 227 226
188 318 192 191 159 181 166 155 150 182 192 242 264 268 212 201 356 36 57 212 209 214 213 209 208 208 214 217 216 218 218 217 213 213 212 211 208 214 221 225 229 228 232 234
171 274 289 52 123 123 185 107 170 104 10 73 282 214 315 177 20 7 55 110 166 206 209 215 218 214 215 215 221 222 224 220 220 219 214 211 210 218 221 224 236 232 237 240
213 242 355 357 78 49 120 149 71 21 134 208 302 281 229 229 319 326 356 30 191 212 210 210 217 215 215 214 224 225 227 226 226 226 218 214 213 218 223 226 231 226 230 224
144 101 285 39 43 176 25 65 54 104 114 152 189 265 212 189 193 235 273 320 294 226 219 217 217 219 215 223 223 227 226 223 224 226 217 215 215 220 224 229 233 235 232 235
85 126 105 186 304 342 188 138 128 119 218 106 144 270 78 136 187 268 273 0 53 3 268 223 212 214 215 213 236 233 225 222 224 225 219 215 218 224 226 231 232 233 234 234
184 23 54 349 359 351 185 134 106 108 93 187 143 262 177 160 176 332 1 45 32 13 71 135 190 205 214 219 222 230 234 226 225 226 225 223 226 229 230 231 228 232 233 236
104 121 153 185 208 152 154 149 129 104 115 175 225 251 219 217 213 231 198 82 69 32 50 90 129 170 196 219 219 225 233 233 231 227 226 230 233 234 232 231 232 234 234 238
102 143 150 245 237 187 184 171 165 155 171 160 225 205 215 204 197 214 215 39 339 6 63 35 190 126 127 279 248 261 242 234 232 234 229 229 234 235 234 233 234 237 239 237
13 150 170 26 351 156 166 190 178 157 136 284 115 269 154 178 192 215 245 256 243 244 87 49 13 297 228 297 220 235 261 225 211 213 225 227 232 238 235 232 234 233 238 237
121 135 105 216 351 91 357 241 149 147 158 148 167 227 148 189 213 215 214 222 210 204 139 156 175 203 184 168 172 217 244 244 222 214 232 229 232 232 233 233 237 235 236 237
130 107 97 169 56 157 236 316 184 127 161 178 170 115 168 169 123 124 98 161 160 163 133 136 155 171 156 156 143 224 287 241 243 241 224 198 217 221 229 237 237 239 239 237
132 124 98 138 162 270 295 177 153 163 228 188 145 137 129 129 113 79 98 120 147 147 145 138 151 155 155 162 179 176 206 229 233 234 227 240 218 246 260 264 259 250 241 238
63 78 118 136 145 189 232 277 178 105 301 171 170 178 151 155 143 210 132 114 108 117 124 148 176 191 204 219 220 224 225 222 215 224 208 218 237 263 273 264 256 260 245 237
76 42 147 143 168 284 234 165 92 98 233 161 171 174 172 168 141 152 155 130 107 90 97 124 204 249 250 252 253 230 229 235 244 252 237 230 242 250 244 250 252 256 245 239
150 139 169 99 99 242 155 109 153 204 178 173 164 169 176 172 161 159 156 142 127 99 71 28 329 298 228 131 148 168 196 221 270 243 247 230 228 231 242 255 266 274 270 276
100 172 177 160 208 247 159 173 174 162 163 185 184 170 160 158 156 164 166 161 147 115 63 26 355 329 344 104 164 174 187 267 215 178 191 199 195 208 220 252 310 273 250 249
357 140 103 107 226 112 158 140 155 163 166 174 185 177 160 158 170 180 183 175 173 168 11 356 341 62 126 100 173 134 209 246 184 198 179 176 194 218 213 83 344 208 214 260
200 136 154 81 46 113 154 168 167 177 168 166 178 188 183 183 187 198 198 199 195 203 328 340 323 116 108 137 145 172 174 138 166 192 169 160 136 148 211 293 217 187 178 162
209 169 138 208 191 159 177 178 179 179 173 174 178 182 186 197 202 197 193 191 195 202 124 79 60 49 76 93 149 164 165 141 150 179 164 173 189 182 174 155 182 171 162 161
Height
1500 1507 1512 1502 1504 1504 1506 1513 1516 1510 1508 1513 1514 1516 1517 1515 1518 1519 1522 1525 1528 1532 1534 1537 1541 1544 1548 1550 1552 1554 1556 1560 1563 1567 1570 1574 1575 1577 1579 1581 1583 1585 1587 1588
1507 1513 1497 1500 1503 1505 1509 1510 1514 1507 1508 1512 1514 1514 1513 1514 1516 1517 1519 1524 1526 1529 1532 1536 1540 1543 1546 1548 1551 1553 1555 1559 1562 1567 1571 1573 1575 1577 1580 1581 1583 1584 1586 1587
1508 1497 1491 1496 1498 1503 1505 1510 1511 1506 1507 1510 1513 1518 1514 1513 1516 1518 1520 1521 1523 1525 1529 1533 1536 1540 1544 1546 1549 1552 1554 1558 1562 1566 1570 1572 1575 1576 1579 1580 1582 1584 1585 1586
1501 1490 1492 1497 1500 1502 1511 1493 1496 1495 1510 1531 1511 1535 1514 1513 1512 1515 1517 1519 1521 1524 1528 1531 1533 1536 1540 1543 1547 1551 1553 1556 1560 1564 1568 1570 1573 1575 1577 1580 1582 1582 1584 1585
1498 1487 1490 1496 1491 1491 1497 1488 1491 1494 1512 1517 1516 1530 1514 1515 1520 1516 1514 1516 1519 1521 1524 1527 1530 1533 1535 1541 1545 1549 1552 1555 1558 1562 1566 1569 1572 1574 1577 1579 1580 1581 1582 1583
1487 1479 1481 1482 1479 1481 1480 1494 1505 1512 1522 1541 1523 1527 1530 1524 1521 1514 1511 1511 1513 1517 1520 1524 1528 1532 1535 1539 1543 1546 1549 1553 1556 1560 1563 1567 1569 1572 1575 1577 1578 1579 1581 1582
1487 1481 1476 1476 1484 1485 1492 1508 1541 1541 1545 1544 1521 1525 1529 1519 1515 1513 1506 1504 1510 1513 1517 1519 1522 1526 1531 1535 1539 1543 1546 1550 1554 1557 1560 1563 1567 1569 1572 1575 1577 1578 1579 1580
1506 1509 1479 1473 1481 1492 1494 1505 1533 1543 1552 1538 1520 1529 1525 1517 1514 1510 1505 1502 1505 1510 1513 1516 1519 1522 1527 1531 1535 1539 1543 1546 1550 1553 1556 1560 1564 1566 1569 1572 1575 1576 1577 1579
1508 1496 1472 1473 1475 1481 1493 1506 1500 1532 1537 1539 1535 1522 1519 1515 1513 1509 1505 1504 1502 1504 1506 1512 1517 1519 1523 1528 1531 1534 1539 1543 1546 1549 1553 1556 1560 1563 1566 1569 1571 1573 1575 1577
1483 1496 1480 1477 1475 1480 1483 1493 1513 1526 1538 1538 1537 1528 1524 1512 1512 1508 1505 1503 1501 1500 1501 1505 1508 1513 1518 1522 1527 1531 1535 1539 1542 1545 1548 1552 1555 1559 1562 1565 1567 1570 1572 1574
1480 1488 1488 1483 1490 1492 1494 1502 1516 1525 1535 1548 1548 1536 1506 1508 1509 1508 1505 1503 1501 1499 1497 1499 1501 1506 1514 1519 1523 1526 1530 1534 1537 1540 1544 1547 1550 1555 1558 1561 1564 1567 1569 1570
1475 1495 1505 1494 1485 1485 1488 1494 1506 1526 1532 1539 1541 1533 1505 1507 1508 1507 1506 1502 1501 1497 1494 1492 1496 1500 1507 1512 1515 1520 1525 1529 1532 1536 1539 1542 1547 1550 1553 1557 1560 1563 1565 1567
1473 1499 1516 1507 1498 1488 1489 1492 1503 1514 1523 1534 1538 1528 1507 1507 1507 1504 1502 1501 1499 1497 1492 1490 1492 1497 1504 1510 1512 1517 1522 1524 1528 1532 1535 1538 1542 1546 1548 1552 1556 1559 1561 1563
1465 1494 1500 1515 1501 1493 1494 1491 1500 1506 1525 1531 1526 1511 1509 1506 1505 1502 1500 1498 1498 1498 1495 1492 1495 1498 1503 1509 1512 1514 1518 1523 1524 1527 1530 1533 1536 1540 1543 1547 1550 1553 1556 1559
1468 1489 1489 1489 1487 1487 1489 1490 1494 1499 1506 1512 1505 1506 1496 1498 1500 1500 1500 1499 1499 1499 1489 1493 1497 1500 1504 1506 1507 1510 1515 1517 1520 1521 1525 1528 1532 1535 1538 1541 1544 1547 1550 1553
1471 1491 1489 1488 1483 1485 1487 1487 1488 1492 1501 1499 1500 1502 1494 1494 1497 1499 1499 1500 1498 1501 1493 1495 1494 1500 1502 1506 1508 1507 1516 1513 1514 1515 1518 1523 1527 1530 1532 1535 1538 1541 1543 1546
1475 1486 1496 1499 1490 1486 1498 1486 1487 1491 1492 1495 1506 1494 1494 1498 1498 1498 1496 1496 1497 1500 1500 1497 1500 1502 1504 1506 1507 1508 1508 1506 1510 1512 1515 1514 1522 1524 1528 1530 1533 1535 1538 1541
1476 1486 1494 1502 1496 1512 1489 1480 1478 1484 1488 1488 1489 1490 1493 1495 1497 1498 1496 1496 1494 1498 1499 1502 1505 1507 1505 1506 1505 1506 1504 1503 1507 1508 1508 1512 1517 1519 1522 1525 1527 1530 1532 1534
1460 1481 1499 1504 1510 1498 1481 1483 1484 1484 1489 1485 1487 1489 1491 1495 1499 1499 1498 1498 1498 1499 1501 1502 1506 1504 1503 1505 1506 1506 1508 1509 1507 1506 1506 1510 1511 1514 1517 1519 1520 1523 1526 1528
1466 1468 1483 1505 1502 1510 1488 1474 1473 1475 1499 1483 1485 1487 1491 1496 1501 1500 1499 1501 1501 1503 1505 1505 1506 1504 1504 1507 1507 1506 1509 1508 1508 1507 1507 1508 1510 1511 1510 1513 1515 1518 1518 1522
1478 1483 1489 1499 1497 1491 1475 1471 1474 1497 1498 1478 1482 1485 1488 1492 1495 1495 1498 1500 1503 1504 1505 1506 1506 1504 1503 1504 1503 1502 1504 1506 1505 1505 1505 1507 1509 1509 1510 1513 1514 1514 1514 1515
1471 1483 1489 1497 1498 1492 1468 1473 1482 1476 1472 1475 1481 1484 1487 1490 1492 1495 1499 1500 1502 1503 1504 1504 1504 1502 1502 1502 1502 1503 1503 1504 1503 1503 1503 1505 1505 1507 1509 1510 1511 1509 1510 1511
1471 1466 1475 1476 1481 1465 1464 1465 1468 1468 1470 1474 1478 1483 1487 1489 1491 1495 1499 1501 1503 1503 1504 1503 1502 1500 1499 1500 1502 1502 1501 1501 1502 1501 1502 1503 1504 1505 1507 1508 1507 1506 1507 1510
1457 1458 1466 1466 1465 1464 1464 1465 1467 1470 1472 1476 1480 1484 1488 1490 1494 1496 1498 1501 1502 1503 1502 1502 1502 1500 1499 1499 1501 1499 1500 1501 1501 1501 1502 1502 1503 1505 1506 1508 1507 1508 1508 1511
1456 1456 1462 1465 1462 1464 1466 1466 1467 1471 1475 1478 1482 1484 1488 1491 1494 1496 1498 1500 1501 1501 1501 1501 1500 1499 1499 1499 1501 1502 1503 1502 1500 1502 1502 1503 1503 1505 1507 1507 1508 1508 1509 1509
1453 1454 1462 1467 1454 1457 1462 1466 1468 1471 1475 1478 1481 1485 1488 1490 1492 1495 1498 1500 1502 1502 1501 1500 1499 1499 1498 1498 1499 1501 1501 1501 1502 1503 1502 1503 1505 1505 1507 1508 1508 1508 1510 1511